Year,Month,Day,Hour,Minute,Value (Times are PST for temperature in C)
2007,05,25,00,00,11.80
2007,05,25,00,01,11.80
2007,05,25,00,02,11.80
2007,05,25,00,03,11.80
2007,05,25,00,04,11.70
2007,05,25,00,05,11.70
2007,05,25,00,06,11.70
2007,05,25,00,07,11.70
2007,05,25,00,08,11.60
2007,05,25,00,09,11.60
2007,05,25,00,10,11.60
2007,05,25,00,11,11.60
2007,05,25,00,12,11.60
2007,05,25,00,13,11.60
2007,05,25,00,14,11.60
2007,05,25,00,15,11.60
2007,05,25,00,16,11.60
2007,05,25,00,17,11.60
2007,05,25,00,18,11.60
2007,05,25,00,19,11.60
2007,05,25,00,20,11.60
2007,05,25,00,21,11.60
2007,05,25,00,22,11.60
2007,05,25,00,23,11.50
2007,05,25,00,24,11.40
2007,05,25,00,25,11.40
2007,05,25,00,26,11.30
2007,05,25,00,27,11.30
2007,05,25,00,28,11.40
2007,05,25,00,29,11.40
2007,05,25,00,30,11.40
2007,05,25,00,31,11.40
2007,05,25,00,32,11.40
2007,05,25,00,33,11.40
2007,05,25,00,34,11.40
2007,05,25,00,35,11.40
2007,05,25,00,36,11.40
2007,05,25,00,37,11.40
2007,05,25,00,38,11.50
2007,05,25,00,39,11.50
2007,05,25,00,40,11.50
2007,05,25,00,41,11.50
2007,05,25,00,42,11.50
2007,05,25,00,43,11.50
2007,05,25,00,44,11.50
2007,05,25,00,45,11.50
2007,05,25,00,46,11.40
2007,05,25,00,47,11.40
2007,05,25,00,48,11.40
2007,05,25,00,49,11.40
2007,05,25,00,50,11.40
2007,05,25,00,51,11.30
2007,05,25,00,52,11.30
2007,05,25,00,53,11.30
2007,05,25,00,54,11.30
2007,05,25,00,55,11.30
2007,05,25,00,56,11.20
2007,05,25,00,57,11.20
2007,05,25,00,58,11.20
2007,05,25,00,59,11.20
2007,05,25,01,00,11.10
2007,05,25,01,01,11.10
2007,05,25,01,02,11.10
2007,05,25,01,03,11.10
2007,05,25,01,04,11.10
2007,05,25,01,05,11.00
2007,05,25,01,06,11.00
2007,05,25,01,07,11.00
2007,05,25,01,08,10.90
2007,05,25,01,09,10.90
2007,05,25,01,10,10.90
2007,05,25,01,11,10.80
2007,05,25,01,12,10.80
2007,05,25,01,13,10.80
2007,05,25,01,14,10.80
2007,05,25,01,15,10.80
2007,05,25,01,16,10.80
2007,05,25,01,17,10.80
2007,05,25,01,18,10.70
2007,05,25,01,19,10.70
2007,05,25,01,20,10.70
2007,05,25,01,21,10.70
2007,05,25,01,22,10.60
2007,05,25,01,23,10.60
2007,05,25,01,24,10.50
2007,05,25,01,25,10.50
2007,05,25,01,26,10.50
2007,05,25,01,27,10.40
2007,05,25,01,28,10.40
2007,05,25,01,29,10.40
2007,05,25,01,30,10.30
2007,05,25,01,31,10.30
2007,05,25,01,32,10.30
2007,05,25,01,33,10.20
2007,05,25,01,34,10.20
2007,05,25,01,35,10.20
2007,05,25,01,36,10.10
2007,05,25,01,37,10.10
2007,05,25,01,38,10.10
2007,05,25,01,39,10.10
2007,05,25,01,40,10.10
2007,05,25,01,41,10.00
2007,05,25,01,42,10.00
2007,05,25,01,43,10.00
2007,05,25,01,44,9.90
2007,05,25,01,45,9.90
2007,05,25,01,46,9.90
2007,05,25,01,47,9.90
2007,05,25,01,48,9.90
2007,05,25,01,49,9.90
2007,05,25,01,50,9.90
2007,05,25,01,51,9.80
2007,05,25,01,52,9.80
2007,05,25,01,53,9.80
2007,05,25,01,54,9.80
2007,05,25,01,55,9.80
2007,05,25,01,56,9.80
2007,05,25,01,57,9.80
2007,05,25,01,58,9.80
2007,05,25,01,59,9.70
2007,05,25,02,00,9.70
2007,05,25,02,01,9.70
2007,05,25,02,02,9.70
2007,05,25,02,03,9.60
2007,05,25,02,04,9.60
2007,05,25,02,05,9.60
2007,05,25,02,06,9.60
2007,05,25,02,07,9.60
2007,05,25,02,08,9.60
2007,05,25,02,09,9.60
2007,05,25,02,10,9.60
2007,05,25,02,11,9.60
2007,05,25,02,12,9.50
2007,05,25,02,13,9.50
2007,05,25,02,14,9.50
2007,05,25,02,15,9.50
2007,05,25,02,16,9.50
2007,05,25,02,17,9.50
2007,05,25,02,18,9.40
2007,05,25,02,19,9.40
2007,05,25,02,20,9.40
2007,05,25,02,21,9.40
2007,05,25,02,22,9.40
2007,05,25,02,23,9.40
2007,05,25,02,24,9.40
2007,05,25,02,25,9.40
2007,05,25,02,26,9.40
2007,05,25,02,27,9.40
2007,05,25,02,28,9.40
2007,05,25,02,29,9.30
2007,05,25,02,30,9.30
2007,05,25,02,31,9.30
2007,05,25,02,32,9.30
2007,05,25,02,33,9.30
2007,05,25,02,34,9.30
2007,05,25,02,35,9.30
2007,05,25,02,36,9.30
2007,05,25,02,37,9.30
2007,05,25,02,38,9.30
2007,05,25,02,39,9.30
2007,05,25,02,40,9.30
2007,05,25,02,41,9.30
2007,05,25,02,42,9.20
2007,05,25,02,43,9.20
2007,05,25,02,44,9.20
2007,05,25,02,45,9.20
2007,05,25,02,46,9.20
2007,05,25,02,47,9.20
2007,05,25,02,48,9.20
2007,05,25,02,49,9.10
2007,05,25,02,50,9.10
2007,05,25,02,51,9.10
2007,05,25,02,52,9.10
2007,05,25,02,53,9.10
2007,05,25,02,54,9.10
2007,05,25,02,55,9.10
2007,05,25,02,56,9.10
2007,05,25,02,57,9.10
2007,05,25,02,58,9.10
2007,05,25,02,59,9.10
2007,05,25,03,00,9.10
2007,05,25,03,01,9.10
2007,05,25,03,02,9.10
2007,05,25,03,03,9.10
2007,05,25,03,04,9.10
2007,05,25,03,05,9.10
2007,05,25,03,06,9.20
2007,05,25,03,07,9.20
2007,05,25,03,08,9.20
2007,05,25,03,09,9.30
2007,05,25,03,10,9.30
2007,05,25,03,11,9.30
2007,05,25,03,12,9.30
2007,05,25,03,13,9.30
2007,05,25,03,14,9.40
2007,05,25,03,15,9.30
2007,05,25,03,16,9.30
2007,05,25,03,17,9.30
2007,05,25,03,18,9.30
2007,05,25,03,19,9.30
2007,05,25,03,20,9.30
2007,05,25,03,21,9.30
2007,05,25,03,22,9.30
2007,05,25,03,23,9.30
2007,05,25,03,24,9.30
2007,05,25,03,25,9.30
2007,05,25,03,26,9.30
2007,05,25,03,27,9.30
2007,05,25,03,28,9.20
2007,05,25,03,29,9.20
2007,05,25,03,30,9.20
2007,05,25,03,31,9.20
2007,05,25,03,32,9.20
2007,05,25,03,33,9.20
2007,05,25,03,34,9.20
2007,05,25,03,35,9.20
2007,05,25,03,36,9.20
2007,05,25,03,37,9.20
2007,05,25,03,38,9.20
2007,05,25,03,39,9.20
2007,05,25,03,40,9.20
2007,05,25,03,41,9.20
2007,05,25,03,42,9.10
2007,05,25,03,43,9.10
2007,05,25,03,44,9.10
2007,05,25,03,45,9.10
2007,05,25,03,46,9.00
2007,05,25,03,47,9.00
2007,05,25,03,48,9.00
2007,05,25,03,49,8.90
2007,05,25,03,50,8.90
2007,05,25,03,51,8.90
2007,05,25,03,52,8.90
2007,05,25,03,53,8.90
2007,05,25,03,54,9.00
2007,05,25,03,55,9.00
2007,05,25,03,56,9.00
2007,05,25,03,57,8.90
2007,05,25,03,58,8.90
2007,05,25,03,59,8.90
2007,05,25,04,00,8.90
2007,05,25,04,01,8.90
2007,05,25,04,02,8.90
2007,05,25,04,03,8.90
2007,05,25,04,04,8.90
2007,05,25,04,05,8.90
2007,05,25,04,06,8.80
2007,05,25,04,07,8.80
2007,05,25,04,08,8.80
2007,05,25,04,09,8.80
2007,05,25,04,10,8.80
2007,05,25,04,11,8.80
2007,05,25,04,12,8.80
2007,05,25,04,13,8.80
2007,05,25,04,14,8.80
2007,05,25,04,15,8.80
2007,05,25,04,16,8.80
2007,05,25,04,17,8.80
2007,05,25,04,18,8.90
2007,05,25,04,19,8.90
2007,05,25,04,20,8.90
2007,05,25,04,21,8.90
2007,05,25,04,22,8.80
2007,05,25,04,23,8.80
2007,05,25,04,24,8.80
2007,05,25,04,25,8.80
2007,05,25,04,26,8.80
2007,05,25,04,27,8.80
2007,05,25,04,28,8.80
2007,05,25,04,29,8.80
2007,05,25,04,30,8.80
2007,05,25,04,31,8.80
2007,05,25,04,32,8.80
2007,05,25,04,33,8.80
2007,05,25,04,34,8.80
2007,05,25,04,35,8.80
2007,05,25,04,36,8.80
2007,05,25,04,37,8.80
2007,05,25,04,38,8.80
2007,05,25,04,39,8.70
2007,05,25,04,40,8.70
2007,05,25,04,41,8.70
2007,05,25,04,42,8.70
2007,05,25,04,43,8.70
2007,05,25,04,44,8.70
2007,05,25,04,45,8.70
2007,05,25,04,46,8.70
2007,05,25,04,47,8.70
2007,05,25,04,48,8.70
2007,05,25,04,49,8.70
2007,05,25,04,50,8.60
2007,05,25,04,51,8.60
2007,05,25,04,52,8.60
2007,05,25,04,53,8.50
2007,05,25,04,54,8.50
2007,05,25,04,55,8.50
2007,05,25,04,56,8.50
2007,05,25,04,57,8.50
2007,05,25,04,58,8.50
2007,05,25,04,59,8.50
2007,05,25,05,00,8.50
2007,05,25,05,01,8.40
2007,05,25,05,02,8.40
2007,05,25,05,03,8.40
2007,05,25,05,04,8.40
2007,05,25,05,05,8.40
2007,05,25,05,06,8.50
2007,05,25,05,07,8.40
2007,05,25,05,08,8.50
2007,05,25,05,09,8.40
2007,05,25,05,10,8.40
2007,05,25,05,11,8.40
2007,05,25,05,12,8.40
2007,05,25,05,13,8.40
2007,05,25,05,14,8.40
2007,05,25,05,15,8.30
2007,05,25,05,16,8.30
2007,05,25,05,17,8.30
2007,05,25,05,18,8.30
2007,05,25,05,19,8.30
2007,05,25,05,20,8.30
2007,05,25,05,21,8.30
2007,05,25,05,22,8.30
2007,05,25,05,23,8.30
2007,05,25,05,24,8.30
2007,05,25,05,25,8.30
2007,05,25,05,26,8.30
2007,05,25,05,27,8.30
2007,05,25,05,28,8.30
2007,05,25,05,29,8.30
2007,05,25,05,30,8.30
2007,05,25,05,31,8.30
2007,05,25,05,32,8.30
2007,05,25,05,33,8.20
2007,05,25,05,34,8.20
2007,05,25,05,35,8.20
2007,05,25,05,36,8.20
2007,05,25,05,37,8.20
2007,05,25,05,38,8.20
2007,05,25,05,39,8.20
2007,05,25,05,40,8.20
2007,05,25,05,41,8.20
2007,05,25,05,42,8.20
2007,05,25,05,43,8.20
2007,05,25,05,44,8.20
2007,05,25,05,45,8.20
2007,05,25,05,46,8.20
2007,05,25,05,47,8.20
2007,05,25,05,48,8.10
2007,05,25,05,49,8.10
2007,05,25,05,50,8.10
2007,05,25,05,51,8.00
2007,05,25,05,52,8.00
2007,05,25,05,53,8.00
2007,05,25,05,54,8.00
2007,05,25,05,55,8.00
2007,05,25,05,56,8.00
2007,05,25,05,57,8.00
2007,05,25,05,58,8.00
2007,05,25,05,59,8.00
2007,05,25,06,00,8.10
2007,05,25,06,01,8.10
2007,05,25,06,02,8.10
2007,05,25,06,03,8.10
2007,05,25,06,04,8.20
2007,05,25,06,05,8.20
2007,05,25,06,06,8.20
2007,05,25,06,07,8.20
2007,05,25,06,08,8.20
2007,05,25,06,09,8.20
2007,05,25,06,10,8.20
2007,05,25,06,11,8.20
2007,05,25,06,12,8.20
2007,05,25,06,13,8.20
2007,05,25,06,14,8.20
2007,05,25,06,15,8.20
2007,05,25,06,16,8.20
2007,05,25,06,17,8.20
2007,05,25,06,18,8.20
2007,05,25,06,19,8.20
2007,05,25,06,20,8.20
2007,05,25,06,21,8.30
2007,05,25,06,22,8.30
2007,05,25,06,23,8.30
2007,05,25,06,24,8.30
2007,05,25,06,25,8.30
2007,05,25,06,26,8.30
2007,05,25,06,27,8.30
2007,05,25,06,28,8.40
2007,05,25,06,29,8.50
2007,05,25,06,30,8.50
2007,05,25,06,31,8.60
2007,05,25,06,32,8.60
2007,05,25,06,33,8.70
2007,05,25,06,34,8.70
2007,05,25,06,35,8.80
2007,05,25,06,36,8.80
2007,05,25,06,37,8.90
2007,05,25,06,38,8.90
2007,05,25,06,39,9.00
2007,05,25,06,40,9.10
2007,05,25,06,41,9.10
2007,05,25,06,42,9.10
2007,05,25,06,43,9.20
2007,05,25,06,44,9.20
2007,05,25,06,45,9.20
2007,05,25,06,46,9.20
2007,05,25,06,47,9.20
2007,05,25,06,48,9.30
2007,05,25,06,49,9.30
2007,05,25,06,50,9.30
2007,05,25,06,51,9.40
2007,05,25,06,52,9.50
2007,05,25,06,53,9.50
2007,05,25,06,54,9.60
2007,05,25,06,55,9.60
2007,05,25,06,56,9.60
2007,05,25,06,57,9.70
2007,05,25,06,58,9.70
2007,05,25,06,59,9.80
2007,05,25,07,00,9.80
2007,05,25,07,01,9.90
2007,05,25,07,02,9.90
2007,05,25,07,03,9.90
2007,05,25,07,04,9.90
2007,05,25,07,05,10.00
2007,05,25,07,06,10.00
2007,05,25,07,07,10.10
2007,05,25,07,08,10.10
2007,05,25,07,09,10.10
2007,05,25,07,10,10.20
2007,05,25,07,11,10.20
2007,05,25,07,12,10.30
2007,05,25,07,13,10.30
2007,05,25,07,14,10.40
2007,05,25,07,15,10.50
2007,05,25,07,16,10.50
2007,05,25,07,17,10.60
2007,05,25,07,18,10.60
2007,05,25,07,19,10.60
2007,05,25,07,20,10.60
2007,05,25,07,21,10.60
2007,05,25,07,22,10.70
2007,05,25,07,23,10.70
2007,05,25,07,24,10.70
2007,05,25,07,25,10.70
2007,05,25,07,26,10.70
2007,05,25,07,27,10.70
2007,05,25,07,28,10.70
2007,05,25,07,29,10.70
2007,05,25,07,30,10.70
2007,05,25,07,31,10.70
2007,05,25,07,32,10.70
2007,05,25,07,33,10.70
2007,05,25,07,34,10.70
2007,05,25,07,35,10.80
2007,05,25,07,36,10.80
2007,05,25,07,37,10.80
2007,05,25,07,38,10.70
2007,05,25,07,39,10.70
2007,05,25,07,40,10.70
2007,05,25,07,41,10.70
2007,05,25,07,42,10.70
2007,05,25,07,43,10.70
2007,05,25,07,44,10.70
2007,05,25,07,45,10.70
2007,05,25,07,46,10.70
2007,05,25,07,47,10.60
2007,05,25,07,48,10.70
2007,05,25,07,49,10.70
2007,05,25,07,50,10.70
2007,05,25,07,51,10.70
2007,05,25,07,52,10.70
2007,05,25,07,53,10.70
2007,05,25,07,54,10.70
2007,05,25,07,55,10.60
2007,05,25,07,56,10.60
2007,05,25,07,57,10.50
2007,05,25,07,58,10.50
2007,05,25,07,59,10.40
2007,05,25,08,00,10.40
2007,05,25,08,01,10.40
2007,05,25,08,02,10.40
2007,05,25,08,03,10.50
2007,05,25,08,04,10.60
2007,05,25,08,05,10.70
2007,05,25,08,06,10.80
2007,05,25,08,07,10.80
2007,05,25,08,08,10.80
2007,05,25,08,09,10.80
2007,05,25,08,10,10.80
2007,05,25,08,11,10.80
2007,05,25,08,12,10.80
2007,05,25,08,13,10.80
2007,05,25,08,14,10.80
2007,05,25,08,15,10.90
2007,05,25,08,16,10.90
2007,05,25,08,17,10.90
2007,05,25,08,18,10.90
2007,05,25,08,19,10.80
2007,05,25,08,20,10.70
2007,05,25,08,21,10.70
2007,05,25,08,22,10.70
2007,05,25,08,23,10.70
2007,05,25,08,24,10.70
2007,05,25,08,25,10.80
2007,05,25,08,26,10.80
2007,05,25,08,27,10.70
2007,05,25,08,28,10.70
2007,05,25,08,29,10.60
2007,05,25,08,30,10.60
2007,05,25,08,31,10.60
2007,05,25,08,32,10.60
2007,05,25,08,33,10.60
2007,05,25,08,34,10.60
2007,05,25,08,35,10.60
2007,05,25,08,36,10.60
2007,05,25,08,37,10.70
2007,05,25,08,38,10.70
2007,05,25,08,39,10.70
2007,05,25,08,40,10.80
2007,05,25,08,41,10.80
2007,05,25,08,42,10.90
2007,05,25,08,43,11.00
2007,05,25,08,44,11.10
2007,05,25,08,45,11.10
2007,05,25,08,46,11.20
2007,05,25,08,47,11.30
2007,05,25,08,48,11.40
2007,05,25,08,49,11.50
2007,05,25,08,50,11.60
2007,05,25,08,51,11.60
2007,05,25,08,52,11.70
2007,05,25,08,53,11.70
2007,05,25,08,54,11.80
2007,05,25,08,55,11.90
2007,05,25,08,56,12.00
2007,05,25,08,57,12.00
2007,05,25,08,58,12.10
2007,05,25,08,59,12.20
2007,05,25,09,00,12.30
2007,05,25,09,01,12.30
2007,05,25,09,02,12.50
2007,05,25,09,03,12.50
2007,05,25,09,04,12.70
2007,05,25,09,05,12.70
2007,05,25,09,06,12.80
2007,05,25,09,07,12.80
2007,05,25,09,08,12.80
2007,05,25,09,09,12.80
2007,05,25,09,10,12.70
2007,05,25,09,11,12.70
2007,05,25,09,12,12.70
2007,05,25,09,13,12.50
2007,05,25,09,14,12.30
2007,05,25,09,15,12.20
2007,05,25,09,16,12.10
2007,05,25,09,17,12.00
2007,05,25,09,18,11.80
2007,05,25,09,19,11.70
2007,05,25,09,20,11.50
2007,05,25,09,21,11.50
2007,05,25,09,22,11.40
2007,05,25,09,23,11.30
2007,05,25,09,24,11.30
2007,05,25,09,25,11.40
2007,05,25,09,26,11.50
2007,05,25,09,27,11.60
2007,05,25,09,28,11.70
2007,05,25,09,29,11.70
2007,05,25,09,30,11.70
2007,05,25,09,31,11.80
2007,05,25,09,32,11.80
2007,05,25,09,33,11.80
2007,05,25,09,34,11.90
2007,05,25,09,35,12.00
2007,05,25,09,36,12.10
2007,05,25,09,37,12.10
2007,05,25,09,38,12.10
2007,05,25,09,39,12.10
2007,05,25,09,40,12.10
2007,05,25,09,41,12.10
2007,05,25,09,42,12.20
2007,05,25,09,43,12.20
2007,05,25,09,44,12.30
2007,05,25,09,45,12.20
2007,05,25,09,46,12.20
2007,05,25,09,47,12.20
2007,05,25,09,48,12.10
2007,05,25,09,49,12.00
2007,05,25,09,50,12.00
2007,05,25,09,51,12.00
2007,05,25,09,52,12.00
2007,05,25,09,53,12.10
2007,05,25,09,54,12.20
2007,05,25,09,55,12.20
2007,05,25,09,56,12.30
2007,05,25,09,57,12.40
2007,05,25,09,58,12.50
2007,05,25,09,59,12.60
2007,05,25,10,00,12.80
2007,05,25,10,01,12.90
2007,05,25,10,02,13.10
2007,05,25,10,03,13.20
2007,05,25,10,04,13.40
2007,05,25,10,05,13.60
2007,05,25,10,06,13.70
2007,05,25,10,07,13.90
2007,05,25,10,08,14.00
2007,05,25,10,09,14.20
2007,05,25,10,10,14.30
2007,05,25,10,11,14.40
2007,05,25,10,12,14.50
2007,05,25,10,13,14.60
2007,05,25,10,14,14.70
2007,05,25,10,15,14.90
2007,05,25,10,16,15.00
2007,05,25,10,17,15.00
2007,05,25,10,18,15.00
2007,05,25,10,19,15.00
2007,05,25,10,20,15.10
2007,05,25,10,21,15.20
2007,05,25,10,22,15.30
2007,05,25,10,23,15.40
2007,05,25,10,24,15.50
2007,05,25,10,25,15.60
2007,05,25,10,26,15.60
2007,05,25,10,27,15.70
2007,05,25,10,28,15.70
2007,05,25,10,29,15.70
2007,05,25,10,30,15.60
2007,05,25,10,31,15.50
2007,05,25,10,32,15.50
2007,05,25,10,33,15.50
2007,05,25,10,34,15.40
2007,05,25,10,35,15.30
2007,05,25,10,36,15.20
2007,05,25,10,37,15.00
2007,05,25,10,38,15.00
2007,05,25,10,39,15.00
2007,05,25,10,40,15.00
2007,05,25,10,41,15.00
2007,05,25,10,42,15.00
2007,05,25,10,43,14.90
2007,05,25,10,44,14.70
2007,05,25,10,45,14.60
2007,05,25,10,46,14.50
2007,05,25,10,47,14.30
2007,05,25,10,48,14.30
2007,05,25,10,49,14.20
2007,05,25,10,50,14.30
2007,05,25,10,51,14.30
2007,05,25,10,52,14.30
2007,05,25,10,53,14.50
2007,05,25,10,54,14.60
2007,05,25,10,55,14.70
2007,05,25,10,56,14.70
2007,05,25,10,57,14.80
2007,05,25,10,58,14.90
2007,05,25,10,59,15.00
2007,05,25,11,00,15.00
2007,05,25,11,01,15.10
2007,05,25,11,02,15.30
2007,05,25,11,03,15.50
2007,05,25,11,04,15.70
2007,05,25,11,05,15.80
2007,05,25,11,06,16.10
2007,05,25,11,07,16.30
2007,05,25,11,08,16.50
2007,05,25,11,09,16.60
2007,05,25,11,10,16.70
2007,05,25,11,11,16.80
2007,05,25,11,12,16.90
2007,05,25,11,13,16.90
2007,05,25,11,14,17.10
2007,05,25,11,15,17.20
2007,05,25,11,16,17.20
2007,05,25,11,17,17.30
2007,05,25,11,18,17.40
2007,05,25,11,19,17.40
2007,05,25,11,20,17.40
2007,05,25,11,21,17.30
2007,05,25,11,22,17.40
2007,05,25,11,23,17.50
2007,05,25,11,24,17.60
2007,05,25,11,25,17.70
2007,05,25,11,26,17.70
2007,05,25,11,27,17.70
2007,05,25,11,28,17.70
2007,05,25,11,29,17.70
2007,05,25,11,30,17.70
2007,05,25,11,31,17.70
2007,05,25,11,32,17.60
2007,05,25,11,33,17.50
2007,05,25,11,34,17.50
2007,05,25,11,35,17.50
2007,05,25,11,36,17.40
2007,05,25,11,37,17.40
2007,05,25,11,38,17.30
2007,05,25,11,39,17.30
2007,05,25,11,40,17.30
2007,05,25,11,41,17.40
2007,05,25,11,42,17.60
2007,05,25,11,43,17.60
2007,05,25,11,44,17.60
2007,05,25,11,45,17.60
2007,05,25,11,46,17.60
2007,05,25,11,47,17.70
2007,05,25,11,48,17.70
2007,05,25,11,49,17.60
2007,05,25,11,50,17.60
2007,05,25,11,51,17.50
2007,05,25,11,52,17.40
2007,05,25,11,53,17.30
2007,05,25,11,54,17.30
2007,05,25,11,55,17.40
2007,05,25,11,56,17.30
2007,05,25,11,57,17.30
2007,05,25,11,58,17.40
2007,05,25,11,59,17.40
2007,05,25,12,00,17.50
2007,05,25,12,01,17.50
2007,05,25,12,02,17.50
2007,05,25,12,03,17.30
2007,05,25,12,04,17.20
2007,05,25,12,05,17.20
2007,05,25,12,06,17.10
2007,05,25,12,07,17.10
2007,05,25,12,08,17.10
2007,05,25,12,09,17.10
2007,05,25,12,10,17.20
2007,05,25,12,11,17.30
2007,05,25,12,12,17.50
2007,05,25,12,13,17.60
2007,05,25,12,14,17.70
2007,05,25,12,15,17.80
2007,05,25,12,16,17.90
2007,05,25,12,17,18.00
2007,05,25,12,18,18.10
2007,05,25,12,19,18.10
2007,05,25,12,20,18.10
2007,05,25,12,21,18.10
2007,05,25,12,22,18.10
2007,05,25,12,23,18.00
2007,05,25,12,24,18.10
2007,05,25,12,25,18.00
2007,05,25,12,26,18.00
2007,05,25,12,27,18.00
2007,05,25,12,28,18.10
2007,05,25,12,29,18.20
2007,05,25,12,30,18.20
2007,05,25,12,31,18.30
2007,05,25,12,32,18.40
2007,05,25,12,33,18.40
2007,05,25,12,34,18.40
2007,05,25,12,35,18.50
2007,05,25,12,36,18.60
2007,05,25,12,37,18.70
2007,05,25,12,38,18.80
2007,05,25,12,39,18.80
2007,05,25,12,40,18.80
2007,05,25,12,41,18.80
2007,05,25,12,42,18.80
2007,05,25,12,43,18.70
2007,05,25,12,44,18.70
2007,05,25,12,45,18.60
2007,05,25,12,46,18.60
2007,05,25,12,47,18.60
2007,05,25,12,48,18.60
2007,05,25,12,49,18.70
2007,05,25,12,50,18.70
2007,05,25,12,51,18.70
2007,05,25,12,52,18.70
2007,05,25,12,53,18.70
2007,05,25,12,54,18.80
2007,05,25,12,55,18.80
2007,05,25,12,56,18.80
2007,05,25,12,57,18.70
2007,05,25,12,58,18.70
2007,05,25,12,59,18.70
2007,05,25,13,00,18.60
2007,05,25,13,01,18.60
2007,05,25,13,02,18.60
2007,05,25,13,03,18.70
2007,05,25,13,04,18.70
2007,05,25,13,05,18.80
2007,05,25,13,06,18.90
2007,05,25,13,07,18.90
2007,05,25,13,08,18.90
2007,05,25,13,09,18.80
2007,05,25,13,10,18.80
2007,05,25,13,11,18.90
2007,05,25,13,12,18.90
2007,05,25,13,13,19.00
2007,05,25,13,14,19.00
2007,05,25,13,15,19.00
2007,05,25,13,16,18.80
2007,05,25,13,17,18.60
2007,05,25,13,18,18.60
2007,05,25,13,19,18.60
2007,05,25,13,20,18.70
2007,05,25,13,21,18.70
2007,05,25,13,22,18.80
2007,05,25,13,23,18.90
2007,05,25,13,24,19.00
2007,05,25,13,25,19.10
2007,05,25,13,26,19.20
2007,05,25,13,27,19.30
2007,05,25,13,28,19.40
2007,05,25,13,29,19.40
2007,05,25,13,30,19.40
2007,05,25,13,31,19.40
2007,05,25,13,32,19.40
2007,05,25,13,33,19.40
2007,05,25,13,34,19.30
2007,05,25,13,35,19.40
2007,05,25,13,36,19.40
2007,05,25,13,37,19.40
2007,05,25,13,38,19.30
2007,05,25,13,39,19.30
2007,05,25,13,40,19.20
2007,05,25,13,41,19.20
2007,05,25,13,42,19.30
2007,05,25,13,43,19.30
2007,05,25,13,44,19.30
2007,05,25,13,45,19.40
2007,05,25,13,46,19.40
2007,05,25,13,47,19.30
2007,05,25,13,48,19.30
2007,05,25,13,49,19.20
2007,05,25,13,50,19.20
2007,05,25,13,51,19.30
2007,05,25,13,52,19.30
2007,05,25,13,53,19.30
2007,05,25,13,54,19.30
2007,05,25,13,55,19.30
2007,05,25,13,56,19.40
2007,05,25,13,57,19.60
2007,05,25,13,58,19.70
2007,05,25,13,59,19.80
2007,05,25,14,00,19.80
2007,05,25,14,01,19.80
2007,05,25,14,02,19.80
2007,05,25,14,03,19.90
2007,05,25,14,04,19.90
2007,05,25,14,05,19.90
2007,05,25,14,06,19.90
2007,05,25,14,07,19.80
2007,05,25,14,08,19.80
2007,05,25,14,09,19.80
2007,05,25,14,10,19.80
2007,05,25,14,11,19.80
2007,05,25,14,12,19.80
2007,05,25,14,13,19.80
2007,05,25,14,14,19.80
2007,05,25,14,15,19.80
2007,05,25,14,16,19.70
2007,05,25,14,17,19.70
2007,05,25,14,18,19.70
2007,05,25,14,19,19.80
2007,05,25,14,20,19.90
2007,05,25,14,21,19.90
2007,05,25,14,22,19.90
2007,05,25,14,23,19.90
2007,05,25,14,24,19.70
2007,05,25,14,25,19.60
2007,05,25,14,26,19.50
2007,05,25,14,27,19.50
2007,05,25,14,28,19.40
2007,05,25,14,29,19.50
2007,05,25,14,30,19.60
2007,05,25,14,31,19.60
2007,05,25,14,32,19.50
2007,05,25,14,33,19.40
2007,05,25,14,34,19.40
2007,05,25,14,35,19.40
2007,05,25,14,36,19.40
2007,05,25,14,37,19.30
2007,05,25,14,38,19.30
2007,05,25,14,39,19.40
2007,05,25,14,40,19.50
2007,05,25,14,41,19.60
2007,05,25,14,42,19.70
2007,05,25,14,43,19.80
2007,05,25,14,44,19.80
2007,05,25,14,45,19.80
2007,05,25,14,46,19.80
2007,05,25,14,47,19.80
2007,05,25,14,48,19.80
2007,05,25,14,49,19.80
2007,05,25,14,50,19.90
2007,05,25,14,51,20.00
2007,05,25,14,52,20.00
2007,05,25,14,53,20.00
2007,05,25,14,54,19.80
2007,05,25,14,55,19.70
2007,05,25,14,56,19.70
2007,05,25,14,57,19.70
2007,05,25,14,58,19.60
2007,05,25,14,59,19.50
2007,05,25,15,00,19.50
2007,05,25,15,01,19.50
2007,05,25,15,02,19.50
2007,05,25,15,03,19.60
2007,05,25,15,04,19.50
2007,05,25,15,05,19.50
2007,05,25,15,06,19.40
2007,05,25,15,07,19.40
2007,05,25,15,08,19.40
2007,05,25,15,09,19.40
2007,05,25,15,10,19.40
2007,05,25,15,11,19.30
2007,05,25,15,12,19.30
2007,05,25,15,13,19.30
2007,05,25,15,14,19.40
2007,05,25,15,15,19.50
2007,05,25,15,16,19.60
2007,05,25,15,17,19.70
2007,05,25,15,18,19.70
2007,05,25,15,19,19.80
2007,05,25,15,20,19.80
2007,05,25,15,21,19.80
2007,05,25,15,22,19.90
2007,05,25,15,23,19.90
2007,05,25,15,24,19.90
2007,05,25,15,25,19.90
2007,05,25,15,26,19.90
2007,05,25,15,27,20.00
2007,05,25,15,28,19.90
2007,05,25,15,29,19.90
2007,05,25,15,30,19.80
2007,05,25,15,31,19.90
2007,05,25,15,32,19.90
2007,05,25,15,33,19.90
2007,05,25,15,34,19.90
2007,05,25,15,35,19.80
2007,05,25,15,36,19.80
2007,05,25,15,37,19.80
2007,05,25,15,38,19.70
2007,05,25,15,39,19.60
2007,05,25,15,40,19.60
2007,05,25,15,41,19.60
2007,05,25,15,42,19.60
2007,05,25,15,43,19.70
2007,05,25,15,44,19.70
2007,05,25,15,45,19.70
2007,05,25,15,46,19.70
2007,05,25,15,47,19.70
2007,05,25,15,48,19.70
2007,05,25,15,49,19.60
2007,05,25,15,50,19.60
2007,05,25,15,51,19.50
2007,05,25,15,52,19.40
2007,05,25,15,53,19.40
2007,05,25,15,54,19.40
2007,05,25,15,55,19.40
2007,05,25,15,56,19.40
2007,05,25,15,57,19.40
2007,05,25,15,58,19.30
2007,05,25,15,59,19.30
2007,05,25,16,00,19.30
2007,05,25,16,01,19.20
2007,05,25,16,02,19.20
2007,05,25,16,03,19.20
2007,05,25,16,04,19.20
2007,05,25,16,05,19.10
2007,05,25,16,06,19.10
2007,05,25,16,07,19.10
2007,05,25,16,08,19.10
2007,05,25,16,09,19.20
2007,05,25,16,10,19.20
2007,05,25,16,11,19.10
2007,05,25,16,12,19.10
2007,05,25,16,13,19.00
2007,05,25,16,14,19.00
2007,05,25,16,15,19.00
2007,05,25,16,16,19.00
2007,05,25,16,17,19.10
2007,05,25,16,18,19.10
2007,05,25,16,19,19.20
2007,05,25,16,20,19.20
2007,05,25,16,21,19.20
2007,05,25,16,22,19.20
2007,05,25,16,23,19.20
2007,05,25,16,24,19.20
2007,05,25,16,25,19.20
2007,05,25,16,26,19.20
2007,05,25,16,27,19.20
2007,05,25,16,28,19.20
2007,05,25,16,29,19.20
2007,05,25,16,30,19.20
2007,05,25,16,31,19.20
2007,05,25,16,32,19.20
2007,05,25,16,33,19.20
2007,05,25,16,34,19.20
2007,05,25,16,35,19.10
2007,05,25,16,36,19.00
2007,05,25,16,37,18.90
2007,05,25,16,38,18.90
2007,05,25,16,39,18.90
2007,05,25,16,40,18.90
2007,05,25,16,41,18.80
2007,05,25,16,42,18.80
2007,05,25,16,43,18.80
2007,05,25,16,44,18.90
2007,05,25,16,45,18.90
2007,05,25,16,46,19.00
2007,05,25,16,47,19.10
2007,05,25,16,48,19.20
2007,05,25,16,49,19.30
2007,05,25,16,50,19.30
2007,05,25,16,51,19.40
2007,05,25,16,52,19.50
2007,05,25,16,53,19.60
2007,05,25,16,54,19.60
2007,05,25,16,55,19.60
2007,05,25,16,56,19.50
2007,05,25,16,57,19.60
2007,05,25,16,58,19.70
2007,05,25,16,59,19.70
2007,05,25,17,00,19.70
2007,05,25,17,01,19.70
2007,05,25,17,02,19.70
2007,05,25,17,03,19.80
2007,05,25,17,04,19.80
2007,05,25,17,05,19.90
2007,05,25,17,06,19.90
2007,05,25,17,07,20.00
2007,05,25,17,08,20.00
2007,05,25,17,09,20.10
2007,05,25,17,10,20.20
2007,05,25,17,11,20.20
2007,05,25,17,12,20.30
2007,05,25,17,13,20.30
2007,05,25,17,14,20.30
2007,05,25,17,15,20.30
2007,05,25,17,16,20.30
2007,05,25,17,17,20.30
2007,05,25,17,18,20.20
2007,05,25,17,19,20.10
2007,05,25,17,20,20.00
2007,05,25,17,21,19.90
2007,05,25,17,22,19.80
2007,05,25,17,23,19.80
2007,05,25,17,24,19.80
2007,05,25,17,25,19.80
2007,05,25,17,26,19.90
2007,05,25,17,27,19.90
2007,05,25,17,28,19.90
2007,05,25,17,29,19.90
2007,05,25,17,30,20.00
2007,05,25,17,31,20.00
2007,05,25,17,32,20.00
2007,05,25,17,33,20.10